{"data":{"norad_id":63231,"intl_designator":"2025-052X","name":"M-SEL/CORTEZ","alt_names":[],"object_type":"PAYLOAD","status":"ACTIVE","operator":null,"country":"US","launch_date":"2025-03-15","launch_site_code":"AFWTR","launch_vehicle":null,"mission":null,"orbit_class":"UNKNOWN","rcs_meters":null,"size_class":null,"mass_kg":null,"dimensions":null,"purposes":[],"wikipedia_slug":null,"has_3d_model":false,"image_url":null,"decayed_at":null,"tle_current":{"epoch":"2026-09-22T15:43:33.947328Z","epoch_age_seconds":122564,"freshness":"FRESH","line1":"1 63231U 25052X   26265.65525402  .00005980  00000+0  22518-3 0  9991","line2":"2 63231  97.3772 158.1378 0005449 145.7750 214.3842 15.27462907 84791","mean_motion":15.27462907,"eccentricity":0.0005449,"inclination_deg":97.3772,"raan_deg":158.1378,"arg_perigee_deg":145.775,"mean_anomaly_deg":214.3842,"bstar":0.00022518,"rev_number":8479,"period_min":94.273975060266,"perigee_km":479.6608856357,"apogee_km":487.13858837168,"semimajor_km":6861.5367370037,"source":"CELESTRAK","updated_at":"2026-09-23T09:00:21.903316Z"}}}